Location: Brienzwiler
(46.7508°N, 8.1014°E)
Time: 16:19:11
(UTC+00:00)

Cosmos 773 Rocket - Pass Details

Date: 05 July 2020
Orbit: 746 x 776 km, 74.1° (Epoch: 11 August)

Event Time Altitude Azimuth Distance (km) Brightness Sun altitude
Rises 20:49:31 0° 195° (SSW) 3,241 6.9 -11.4°
Reaches altitude 10° 20:51:53 10° 194° (SSW) 2,319 6.1 -11.7°
Maximum altitude 20:57:09 77° 109° (ESE) 802 4.0 -12.2°
Drops below altitude 10° 21:02:27 10° 25° (NNE) 2,331 6.9 -12.8°
Sets 21:04:50 0° 24° (NNE) 3,260 7.7 -13.0°
